Regional Weather Roundup
Issued by NWS

Home | Current Version | Previous Version | Text Only | Print | Product List | Glossary Off
Versions: 1 2 3 4 5 6 7 8 9 10 11 12 13 14 15 16 17 18 19 20 21 22 23 24 25 26 27 28 29 30 31 32 33 34 35 36 37 38 39 40 41 42 43 44 45 46 47 48 49 50

000
ASUS43 KMKX 281211
RWRWI

WISCONSIN REGIONAL WEATHER ROUNDUP
NATIONAL WEATHER SERVICE MILWAUKEE/SULLIVAN WI
700 AM CDT SAT MAY 28 2016

NOTE: "FAIR" INDICATES FEW OR NO CLOUDS BELOW 12,000 FEET WITH NO
SIGNIFICANT WEATHER AND/OR OBSTRUCTIONS TO VISIBILITY.

WIZ001-002-006>008-014>016-023>028-281300-
NORTHWEST WISCONSIN

CITY           SKY/WX    TMP DP  RH WIND       PRES   REMARKS
SUPERIOR ARPT  FOG       45  45 100 CALM      29.79S VSB 1
6HR MIN TEMP:  44; 6HR MAX TEMP:  47; 6HR PCP:  0.01;

ASHLAND        CLOUDY    49  47  93 VRB5      29.78S
6HR MIN TEMP:  45; 6HR MAX TEMP:  49;

HAYWARD        LGT RAIN  56  56 100 CALM      29.79F
6HR MIN TEMP:  55; 6HR MAX TEMP:  57; 6HR PCP: TRACE;

SIREN          CLOUDY    53  52  97 E3        29.79R
6HR MIN TEMP:  53; 6HR MAX TEMP:  56;

CUMBERLAND     LGT RAIN  55  55 100 NE5       29.78S
RICE LAKE      LGT RAIN  59  58  96 NW5       29.78F
6HR MIN TEMP:  58; 6HR MAX TEMP:  59;

CHETEK         CLOUDY    60  60 100 N7        29.74F FOG
6HR MIN TEMP:  60; 6HR MAX TEMP:  61;

LADYSMITH      CLOUDY    63  62  97 E6        29.78F FOG
6HR MIN TEMP:  63; 6HR MAX TEMP:  67;

EAU CLAIRE     CLOUDY    63  62  97 E5        29.75R
6HR MIN TEMP:  61; 6HR MAX TEMP:  64; 6HR PCP: TRACE;

MENOMONIE      CLOUDY    63  63  99 CALM      29.73F FOG
6HR MIN TEMP:  63; 6HR MAX TEMP:  63;

NEW RICHMOND   CLOUDY    62  62 100 CALM      29.77S FOG
6HR MIN TEMP:  61; 6HR MAX TEMP:  62;

OSCEOLA        CLOUDY    58  58 100 N3        29.80S FOG
6HR MIN TEMP:  58; 6HR MAX TEMP:  62;

$$

WIZ003>005-009-010-017-018-281300-
NORTH CENTRAL WISCONSIN

CITY           SKY/WX    TMP DP  RH WIND       PRES   REMARKS
MANITOWISH WTR NOT AVBL
ARBOR VITAE    PTSUNNY   66  64  95 CALM      29.79S FOG
6HR MIN TEMP:  65; 6HR MAX TEMP:  66;

WOODRUFF       PTSUNNY   66  64  95 CALM      29.79S FOG
6HR MIN TEMP:  65; 6HR MAX TEMP:  66;

RHINELANDER    CLOUDY    67  65  93 CALM      29.79S FOG
6HR MIN TEMP:  65; 6HR MAX TEMP:  67; 6HR PCP: TRACE;

EAGLE RIVER      N/A     65  64  99 CALM      29.79F FOG
LAND O LAKES   CLOUDY    64  64 100 SE3       29.81S FOG
6HR MIN TEMP:  64; 6HR MAX TEMP:  65;

PHILLIPS       CLOUDY    64  64 100 CALM      29.77F
6HR MIN TEMP:  64; 6HR MAX TEMP:  65;

TOMAHAWK       CLOUDY    66  64  96 CALM      29.79S FOG
6HR MIN TEMP:  64; 6HR MAX TEMP:  66;

MEDFORD        CLOUDY    65  65 100 CALM      29.76F FOG
6HR MIN TEMP:  64; 6HR MAX TEMP:  65;

MERRILL        CLOUDY    67  67 100 S3        29.78F FOG
$$

WIZ029-030-035-036-043>047-281300-
CENTRAL WISCONSIN

CITY           SKY/WX    TMP DP  RH WIND       PRES   REMARKS
WAUSAU         RAIN      69  66  90 SE7       29.75F FOG
6HR MIN TEMP:  68; 6HR MAX TEMP:  69; 6HR PCP: TRACE;

MOSINEE        LGT RAIN  66  66 100 SE9       29.77F
MARSHFIELD     HVY RAIN  68  65  90 S12       29.75S VSB 1/2
6HR MIN TEMP:  68; 6HR MAX TEMP:  69; 6HR PCP:  0.20;

STEVENS POINT  RAIN      65  65  97 SE7       29.76F
6HR MIN TEMP:  65; 6HR MAX TEMP:  66;

WAUPACA        CLOUDY    69  69 100 SE7       29.78S
6HR MIN TEMP:  68; 6HR MAX TEMP:  70; 6HR PCP:  0.02;

WAUTOMA        CLOUDY    67  66  97 SE8       29.77F
6HR MIN TEMP:  66; 6HR MAX TEMP:  69; 6HR PCP:  0.05;

WISC RAPIDS    CLOUDY    68  65  90 S7        29.77S
6HR MIN TEMP:  67; 6HR MAX TEMP:  68; 6HR PCP: TRACE;

CAMP DOUGLAS   LGT RAIN  68 N/A N/A E9        29.72F
                                      6HR PCP:  0.13;

$$

WIZ011>013-019>022-031-037>040-048>050-281300-
NORTHEAST WISCONSIN

CITY           SKY/WX    TMP DP  RH WIND       PRES   REMARKS
ANTIGO         FOG       65  65 100 S8        29.80F VSB 1/4
6HR MIN TEMP:  64; 6HR MAX TEMP:  65;

SHAWANO        CLOUDY    69  66  93 S3        29.79F
6HR MIN TEMP:  66; 6HR MAX TEMP:  69; 6HR PCP:  0.05;

OCONTO         CLOUDY   N/A N/A N/A SE6       29.81S
STURGEON BAY   NOT AVBL
GREEN BAY      CLOUDY    69  66  90 SE7       29.81S
6HR MIN TEMP:  66; 6HR MAX TEMP:  69;

MANITOWOC      CLOUDY    58  57  97 S9        29.84F FOG
6HR MIN TEMP:  56; 6HR MAX TEMP:  60; 6HR PCP:  0.01;

APPLETON       PTSUNNY   68  66  94 SE8       29.79F
CLINTONVILLE   CLOUDY    66  64  94 SE6       29.79F
OSHKOSH        CLOUDY    69  65  86 S9        29.78F
6HR MIN TEMP:  67; 6HR MAX TEMP:  69; 6HR PCP:  0.01;

$$

WIZ032>034-041-042-053>061-281300-
SOUTHWEST WISCONSIN

CITY           SKY/WX    TMP DP  RH WIND       PRES   REMARKS
LA CROSSE      LGT RAIN  66  64  93 NW7       29.71F
6HR MIN TEMP:  65; 6HR MAX TEMP:  68; 6HR PCP:  0.56;

SPARTA         CLOUDY    65  65 100 N3        29.73F
6HR MIN TEMP:  62; 6HR MAX TEMP:  65; 6HR PCP:  0.09;

VIROQUA        CLOUDY    66  66 100 SW5       29.74R
6HR MIN TEMP:  64; 6HR MAX TEMP:  67; 6HR PCP:  0.14;

BOSCOBEL       LGT RAIN  67  65  93 CALM      29.74R
6HR MIN TEMP:  66; 6HR MAX TEMP:  70; 6HR PCP:  0.75;

PRAIRIE DU CHI DRIZZLE   66  65  96 CALM      29.73S
6HR MIN TEMP:  65; 6HR MAX TEMP:  67; 6HR PCP:  0.32;

PLATTEVILLE    CLOUDY    67  66  96 S14       29.77R
$$

WIZ056-057-062-063-064-067-068-281300-
SOUTH CENTRAL WISCONSIN

CITY           SKY/WX    TMP DP  RH WIND       PRES   REMARKS
REEDSBURG      CLOUDY    67  66  95 S7        29.74S
6HR MIN TEMP:  67; 6HR MAX TEMP:  69; 6HR PCP:  0.03;

BARABOO/DELLS  CLOUDY    67  64  88 S14       29.75S
6HR MIN TEMP:  67; 6HR MAX TEMP:  70; 6HR PCP:  0.03;

LONE ROCK      CLOUDY    70  65  84 S12       29.74S
6HR MIN TEMP:  69; 6HR MAX TEMP:  71; 6HR PCP:  0.09;

MINERAL POINT  CLOUDY    68  66  94 S15       29.76S
MADISON        CLOUDY    69  66  90 S15       29.77S
6HR MIN TEMP:  68; 6HR MAX TEMP:  72; 6HR PCP:  0.06;

MIDDLETON      CLOUDY    70  67  89 S13       29.77S
6HR MIN TEMP:  68; 6HR MAX TEMP:  73; 6HR PCP:  0.22;

WATERTOWN      CLOUDY    68  67  96 S9G18     29.80S
6HR MIN TEMP:  66; 6HR MAX TEMP:  69; 6HR PCP:  0.06;

MONROE         CLOUDY    68  64  88 S15G23    29.79S
JANESVILLE     DRIZZLE   70  68  94 S15G21    29.81R
$$

WIZ051-052-058>065-066-070>072-281300-
SOUTHEAST WISCONSIN

CITY           SKY/WX    TMP DP  RH WIND       PRES   REMARKS
MILWAUKEE      CLOUDY    69  63  81 S13       29.84S
6HR MIN TEMP:  64; 6HR MAX TEMP:  70;

WAUKESHA       PTSUNNY   66  64  94 S9        29.84F
MILWAUKEE/TIMM CLOUDY    68  61  77 S10       29.84S
RACINE         CLOUDY    63  59  87 S13       29.87S
6HR MIN TEMP:  62; 6HR MAX TEMP:  67; 6HR PCP: TRACE;

BURLINGTON     CLOUDY    67  64  90 S7        29.84S FOG
6HR MIN TEMP:  66; 6HR MAX TEMP:  68; 6HR PCP:  0.05;

KENOSHA        CLOUDY    68  63  84 S8        29.85S
6HR MIN TEMP:  67; 6HR MAX TEMP:  71; 6HR PCP: TRACE;

FOND DU LAC    MOSUNNY   70  65  84 S16       29.79F
6HR MIN TEMP:  68; 6HR MAX TEMP:  70; 6HR PCP: TRACE;

SHEBOYGAN      CLOUDY    63  61  93 S8        29.83S
6HR MIN TEMP:  62; 6HR MAX TEMP:  65; 6HR PCP: TRACE;

WEST BEND      CLOUDY    68  63  83 S8        29.83S
JUNEAU         CLOUDY    68  64  88 S13G21    29.81S
6HR MIN TEMP:  66; 6HR MAX TEMP:  68; 6HR PCP:  0.02;

$$

LSZ147-162-281300-
LAKE SUPERIOR

STATION/POSITION TIME  TEMP    WIND        PRES    WAVE
                       AIR SEA DIR/SP/G            HT/PER
                 (UTC) (F)     (DEG/KT/KT) (MB)    (FT/S)
W MID LAKE BUOY  1150   40 38   60/ 10/ 10 1008.4F   2/ 4
DEVILS ISLAND    1200   43     350/  8/  9 1009.1R
SAXON HARBOR     1140   49      CALM  /  2 1008.1R
$$

LMZ867-665-643>646-281300-
LAKE MICHIGAN

STATION/POSITION TIME  TEMP    WIND        PRES    WAVE
                       AIR SEA DIR/SP/G            HT/PER
                 (UTC) (F)     (DEG/KT/KT) (MB)    (FT/S)
CHAMBERS ISLAND  1100   64     160/  6/ 17 1010.2
N MID LAKE BUOY  1150   52 46  190/ 14/ 17 1010.8R   2/ 4
NORTHPORT PIER   1100   58     150/  8/ 10 1010.8R
SISTER BAY       1135   58     160/ 13/ 16   N/A
ALGOMA LAKESHORE 1117          190/  4/  7   N/A
KEWAUNEE LAKESHO 1100   51     170/  9/ 10 1010.1R
SHEBOYGAN LC1F1C2F2C3F3C4F4C5F5C6F6C7F7C8M1C9M2Ca!



USA.gov is the U.S. government's official web portal to all federal, state and local government web resources and services.